Theta_e
338 337 336 336 335 333 332 331 330 328 318 306 304 310 319 325 326 325 323 323 322 323 322 320 319 318 317 316 315 314 314 313 313 313 312 311 311 311 311 311 311 311 311
338 337 336 335 333 332 332 332 330 330 328 311 305 305 316 324 324 322 321 320 319 320 320 319 317 316 317 316 314 314 313 312 312 311 310 311 310 310 310 310 309 310 310
337 336 336 334 333 333 332 331 330 330 328 323 306 306 312 320 322 321 320 318 317 318 318 318 318 317 316 314 313 312 312 311 311 311 310 310 309 309 309 308 308 308 308
337 336 335 334 333 333 332 331 329 329 328 324 311 305 311 317 320 319 319 318 317 317 317 317 316 315 316 314 314 313 312 310 310 310 310 309 309 308 308 307 307 307 307
336 335 335 334 333 332 331 331 330 328 326 325 315 307 310 316 319 319 318 317 317 317 316 316 314 314 313 313 312 312 312 311 310 309 309 308 308 307 307 306 306 306 305
336 335 335 334 334 333 332 331 330 328 325 325 318 309 310 314 318 318 318 317 316 316 315 314 314 313 312 311 313 313 312 311 310 309 309 308 307 306 306 305 305 304 304
333 333 333 331 332 332 332 331 330 325 322 319 313 312 312 313 314 316 317 317 316 315 314 315 313 312 311 310 311 313 312 312 311 309 308 307 306 305 305 304 304 303 303
315 313 310 309 310 315 319 324 324 323 321 319 316 311 312 310 310 312 314 316 315 315 315 314 313 311 310 310 311 312 312 312 311 309 307 306 305 304 303 302 302 302 301
313 313 311 309 309 308 310 312 315 321 321 317 316 314 311 314 310 309 310 311 313 314 314 314 312 311 309 309 310 311 311 311 310 308 306 305 304 303 302 301 301 300 300
313 312 310 307 308 307 309 308 310 315 319 319 313 314 314 311 313 306 308 308 309 310 311 312 311 310 309 308 309 309 311 309 308 308 305 304 303 302 301 300 300 300 299
303 303 303 303 305 304 306 307 308 311 314 316 317 314 312 313 309 307 308 308 306 306 307 309 308 308 308 307 307 308 308 307 307 306 304 303 302 301 300 299 299 298 298
301 301 301 302 302 305 305 307 307 310 311 313 313 314 314 313 308 308 308 309 307 306 304 304 304 305 307 305 305 306 306 305 305 304 303 302 302 301 299 299 298 298 297
302 301 300 302 303 303 306 308 310 311 310 310 311 312 312 313 313 310 311 308 308 303 302 302 302 304 306 304 303 303 304 304 303 302 301 300 300 299 298 298 297 296 296
301 300 300 301 303 304 305 308 309 310 309 308 308 309 310 310 311 312 310 309 307 302 299 299 299 301 304 302 301 301 301 302 301 300 299 298 298 298 297 296 295 295 294
300 299 300 301 303 304 305 308 307 306 306 306 307 306 306 308 310 310 311 310 310 303 301 297 296 297 298 299 298 298 299 298 299 298 297 296 296 295 294 294 293 292 292
298 298 299 301 302 304 304 304 304 304 304 305 305 305 305 306 307 309 310 309 309 308 303 298 297 295 297 297 297 296 298 297 297 296 295 294 293 293 292 291 290 290 290
297 298 299 300 301 302 302 301 301 302 303 303 303 303 304 305 306 308 309 309 308 308 305 298 296 294 294 295 295 295 296 295 294 294 293 292 291 290 290 289 288 288 287
296 298 300 301 301 300 299 299 299 300 301 301 302 302 303 305 307 307 308 308 308 308 307 296 293 292 294 294 292 292 292 293 292 291 290 290 289 288 287 287 286 286 285
295 296 297 297 297 297 298 298 298 298 298 297 298 298 299 300 302 304 306 308 308 307 306 295 292 293 293 292 291 291 291 290 290 289 288 288 287 286 285 284 284 284 283
293 293 294 295 295 296 296 295 295 295 295 295 296 296 297 298 299 301 306 307 307 306 301 294 292 292 290 289 290 288 287 289 288 288 287 286 285 285 284 284 283 283 282
292 292 293 293 293 292 292 293 292 292 292 293 293 295 296 298 299 300 301 307 307 305 298 295 293 290 289 288 289 288 287 287 287 286 285 285 285 284 283 282 283 282 281
291 291 291 290 290 290 290 290 290 290 291 293 295 296 297 299 299 300 301 303 307 303 297 294 292 291 289 289 289 288 287 287 286 285 285 284 284 283 282 281 281 281 281
290 290 288 289 289 288 289 289 290 291 291 293 293 295 298 301 302 303 301 303 306 303 298 295 292 292 289 289 288 287 287 287 286 285 285 284 283 282 282 281 281 281 280
289 288 288 288 288 288 288 289 290 292 293 293 295 297 299 301 305 303 303 302 301 298 295 295 292 291 289 288 288 288 286 286 285 284 284 283 282 281 281 281 281 280 280
288 288 287 288 288 287 287 289 290 290 291 292 293 294 297 300 301 302 298 295 293 293 293 293 292 291 289 288 287 286 285 285 285 284 284 283 282 281 280 281 281 280 280
287 287 287 287 287 287 288 289 289 290 290 291 292 293 295 297 297 293 292 292 291 291 292 291 290 289 288 287 286 289 285 285 285 284 283 282 281 282 280 280 281 281 280
Wind_Speed
20 20 20 20 19 19 18 17 15 16 17 18 19 21 24 27 27 25 24 22 21 19 19 18 18 16 16 16 14 12 12 15 15 15 14 14 14 13 13 12 11 11 11
21 21 21 21 22 22 23 22 20 18 18 20 22 24 27 29 29 28 26 24 22 21 19 18 17 17 19 17 15 13 12 12 15 15 16 14 13 14 12 12 11 11 11
21 23 24 25 27 28 28 26 24 23 22 23 26 25 27 31 32 31 30 27 24 23 22 20 19 18 18 18 17 15 14 12 12 14 15 17 14 13 13 12 11 10 10
22 24 26 29 30 31 30 30 29 28 27 27 29 31 32 33 35 34 34 32 29 28 26 24 21 20 19 19 18 18 17 15 12 12 14 15 16 14 13 11 11 10 10
22 25 29 32 31 33 32 32 33 33 33 32 32 32 33 35 37 37 34 33 33 33 32 29 25 22 21 19 18 19 18 17 15 12 12 13 13 13 14 13 12 10 10
15 14 21 26 31 34 36 37 38 38 37 38 34 31 36 36 37 40 40 38 35 34 33 32 29 28 26 22 19 19 19 19 19 17 13 13 13 14 13 13 12 11 11
11 13 14 17 21 28 34 36 37 33 32 31 17 16 27 30 34 40 42 41 41 40 38 36 35 32 29 27 24 21 20 20 20 19 16 14 14 13 14 13 13 12 11
7 8 9 10 12 13 16 25 27 25 26 29 16 7 3 11 28 33 42 44 43 41 43 43 40 36 33 31 28 25 23 22 20 20 18 15 15 15 13 13 12 12 11
10 13 16 18 19 20 19 18 19 25 24 22 33 13 3 6 7 21 34 39 44 46 45 45 44 42 35 33 32 29 27 26 25 24 21 16 16 15 14 14 13 12 11
15 18 22 26 27 27 27 25 22 22 24 23 20 32 21 4 4 1 18 33 35 42 47 45 46 43 41 37 34 33 31 31 27 25 25 20 17 17 15 14 14 12 13
22 26 29 30 30 31 31 31 27 24 22 23 24 16 26 25 15 2 3 13 27 35 39 46 45 44 41 39 35 32 32 32 29 27 25 24 19 18 16 15 15 12 14
26 29 32 35 38 34 35 37 36 32 27 27 26 27 24 13 16 9 3 12 18 26 32 34 42 43 44 40 37 33 32 32 30 27 27 25 23 21 18 16 16 13 14
32 34 33 33 36 36 33 32 35 32 29 27 26 28 32 34 29 28 26 9 7 8 11 28 35 43 46 43 40 35 35 34 33 31 28 26 23 23 21 18 17 14 13
33 35 35 34 33 35 35 31 33 33 31 33 33 33 33 35 35 31 29 16 5 4 9 13 31 42 46 47 41 37 34 35 34 33 32 28 26 24 24 22 19 17 15
38 36 35 34 33 32 31 31 31 34 32 33 34 35 36 37 36 37 35 32 19 6 7 15 12 36 42 45 46 39 36 33 35 34 33 30 28 26 23 21 20 18 16
38 37 34 30 30 29 31 32 32 35 34 36 35 34 37 38 39 39 40 34 35 22 8 15 25 40 47 48 44 43 43 38 36 34 32 29 26 26 24 22 21 19 18
36 33 30 30 31 31 30 29 32 34 35 35 36 39 43 41 41 38 39 37 38 32 11 9 24 38 43 46 42 43 42 39 36 34 31 31 27 26 25 23 20 19 20
31 29 30 29 29 31 32 34 35 33 34 34 32 31 34 34 35 35 33 38 46 41 28 15 24 37 45 49 46 43 41 40 37 30 30 30 28 27 24 23 19 18 19
27 28 27 31 33 33 33 32 32 30 35 39 38 39 40 39 39 38 39 41 35 34 33 24 21 35 37 42 43 36 38 38 36 30 28 26 23 23 20 21 18 16 17
29 31 31 30 31 31 29 31 34 33 34 36 38 39 42 42 42 41 40 36 40 37 33 33 33 37 39 40 44 41 32 38 37 34 27 24 23 21 19 19 17 15 16
28 29 30 30 28 30 28 28 30 32 36 38 40 41 43 45 47 46 44 36 35 33 36 33 29 33 33 37 40 38 35 35 31 35 32 28 26 24 19 17 15 15 15
30 30 28 28 29 28 28 29 30 33 36 36 35 36 34 43 51 58 59 50 51 42 37 34 31 32 38 44 39 40 39 35 14 34 33 29 28 24 21 19 16 15 14
30 28 26 25 26 25 25 27 29 32 28 27 26 26 30 34 43 45 59 53 52 56 57 51 40 41 39 47 46 41 40 40 24 39 34 24 29 24 21 17 14 14 14
25 23 22 21 20 23 23 25 27 24 23 20 20 21 18 22 27 26 36 35 37 48 49 42 50 46 49 49 55 51 44 32 29 34 30 16 26 21 21 16 14 14 15
19 17 17 17 21 21 23 25 25 23 18 17 18 18 5 8 14 33 37 34 31 28 31 31 37 44 47 47 47 47 36 33 26 29 30 18 21 21 21 19 17 14 13
14 15 16 17 17 22 25 24 22 18 16 17 22 24 17 24 33 34 38 39 32 30 35 34 32 37 44 47 52 52 48 35 31 16 25 14 26 22 8 20 21 18 14
Wind_Direction
224 227 231 234 237 248 256 269 271 265 260 253 240 230 223 217 213 211 208 208 211 197 187 187 183 183 181 182 177 175 168 160 153 148 141 139 132 127 120 117 111 106 101
233 235 240 248 257 260 265 261 262 258 255 256 252 236 228 222 218 215 212 211 202 194 188 184 183 183 178 174 173 172 173 171 156 152 146 139 139 133 129 124 116 110 105
243 246 246 251 256 252 254 253 248 251 244 241 244 239 232 226 221 216 213 212 200 192 189 189 184 185 185 179 176 175 174 176 167 159 151 143 139 133 129 122 119 114 104
251 251 254 259 261 261 259 256 253 250 248 242 238 235 230 227 223 220 215 211 201 194 192 190 194 187 187 183 181 174 171 172 170 167 155 148 143 140 133 125 118 118 114
257 258 262 267 267 267 266 262 259 254 253 244 240 239 235 228 224 220 218 214 204 197 196 195 193 191 194 192 188 182 174 170 170 173 166 155 147 143 137 134 125 120 115
284 292 276 273 275 270 270 266 262 258 253 252 242 233 238 234 228 221 217 213 211 204 201 198 197 194 191 192 191 192 182 174 169 167 170 162 155 147 144 136 130 122 113
290 289 294 298 291 277 276 270 265 251 244 240 226 228 229 230 228 220 219 216 211 205 202 199 198 196 191 190 189 193 190 181 173 167 169 166 158 152 143 134 128 120 115
329 320 321 316 309 304 290 275 265 252 244 229 218 183 231 230 232 226 220 215 210 208 204 197 198 197 194 188 187 187 191 185 176 169 162 168 162 152 146 136 132 123 116
319 317 313 310 308 304 296 289 283 266 261 240 220 198 192 220 183 209 220 216 208 203 203 199 201 195 196 195 189 184 187 186 177 171 158 170 166 156 151 143 135 128 122
305 305 301 300 297 296 289 289 285 274 261 260 235 232 244 171 205 165 207 213 213 203 200 199 201 198 193 196 194 189 184 183 178 171 154 170 169 154 155 146 139 135 127
304 303 302 300 292 289 281 277 273 264 258 253 253 249 236 236 237 171 189 194 209 208 205 197 198 198 194 198 196 191 191 182 178 171 159 164 168 157 156 149 138 143 133
319 314 308 304 300 286 275 272 271 263 257 258 251 249 236 222 209 205 197 201 211 207 202 197 195 189 192 200 200 194 191 186 182 173 165 163 164 159 154 153 136 147 136
317 314 309 303 299 291 281 272 264 259 261 259 258 255 255 253 242 233 217 189 181 169 179 198 195 192 199 200 202 198 191 190 182 173 164 161 163 159 155 152 142 148 139
307 309 304 298 296 294 288 281 268 265 266 261 257 259 259 253 251 230 229 201 181 176 168 165 194 195 201 200 200 199 191 189 183 176 166 164 162 163 155 152 151 152 142
310 306 297 289 292 290 286 277 274 270 263 260 258 258 254 259 255 247 222 216 220 178 187 174 165 191 192 191 197 191 188 188 186 176 167 167 161 158 151 146 153 150 141
308 310 305 293 288 282 280 276 270 268 262 256 255 260 259 253 251 247 236 211 210 212 197 184 189 186 189 188 189 189 187 185 190 182 173 168 165 156 154 153 151 150 139
308 304 300 293 287 283 284 280 276 272 265 263 261 259 259 255 249 247 237 219 213 206 201 176 183 178 176 175 176 182 178 181 183 190 182 179 168 159 156 156 152 151 144
303 296 295 293 289 287 286 283 280 274 270 269 266 267 263 256 251 245 238 220 203 201 204 161 163 168 175 173 170 171 170 178 178 180 182 174 173 164 162 153 156 162 138
304 302 302 300 294 291 288 282 279 279 279 273 269 264 259 256 253 247 246 231 212 199 192 164 160 172 172 164 160 163 163 163 170 163 176 165 163 158 163 146 162 157 136
309 305 303 299 297 293 293 290 288 284 280 276 272 265 260 252 246 244 238 225 201 189 174 164 162 164 165 164 159 149 148 158 155 164 162 163 165 156 155 153 161 146 136
307 307 307 304 301 300 296 293 293 290 285 281 274 267 260 253 245 237 235 224 198 184 164 161 160 160 162 160 166 163 156 151 157 157 157 164 160 162 158 155 163 147 139
319 317 310 310 313 307 304 308 304 297 289 281 280 276 264 256 245 237 229 228 197 178 166 162 166 169 168 168 162 160 152 153 142 165 160 157 170 162 162 167 164 151 140
322 316 321 321 317 309 317 319 315 308 297 302 301 292 284 273 255 240 217 216 199 187 176 166 167 173 168 168 159 158 161 161 155 161 161 149 172 164 172 165 159 154 140
320 317 320 330 319 333 335 328 326 318 320 330 339 325 309 289 249 201 193 189 174 170 167 170 171 171 167 164 166 164 158 145 139 153 153 145 167 167 173 163 165 162 150
314 317 336 329 348 336 342 340 337 330 334 355 6 359 22 80 138 152 138 132 131 134 155 159 166 167 164 163 157 145 143 140 140 155 169 148 161 159 173 171 176 168 159
315 343 348 1 351 355 355 349 345 343 359 18 36 43 54 105 115 113 121 125 119 126 130 139 147 154 157 157 158 163 155 150 145 138 181 147 156 153 166 192 185 178 171